| time (UTC) | temp F | wind direction | speed MPH | gust MPH | rain 1hr in | rain 24hr in | rain mn in | humidity % | barometer mb |
| 20260506143014 | 42 | 311 | 6.0 | 17.0 | 0.00 | 0.01 | 0.00 | 76 | 1011.1 |
| 20260506141514 | 42 | 342 | 5.0 | 15.0 | 0.00 | 0.01 | 0.00 | 77 | 1010.7 |
| 20260506140014 | 42 | 290 | 6.0 | 15.0 | 0.00 | 0.01 | 0.00 | 78 | 1010.6 |
| 20260506134514 | 41 | 309 | 5.0 | 13.0 | 0.00 | 0.01 | 0.00 | 78 | 1010.4 |
| 20260506133014 | 41 | 307 | 4.0 | 16.0 | 0.00 | 0.01 | 0.00 | 79 | 1010.3 |
| 20260506131514 | 41 | 305 | 4.0 | 13.0 | 0.00 | 0.01 | 0.00 | 79 | 1010.2 |
| 20260506130014 | 40 | 300 | 5.0 | 12.0 | 0.00 | 0.01 | 0.00 | 78 | 1010.1 |
| 20260506124514 | 40 | 296 | 4.0 | 16.0 | 0.00 | 0.01 | 0.00 | 80 | 1009.9 |
| 20260506123019 | 40 | 290 | 4.0 | 14.0 | 0.00 | 0.01 | 0.00 | 82 | 1009.7 |
| 20260506121515 | 39 | 283 | 6.0 | 15.0 | 0.00 | 0.01 | 0.00 | 82 | 1009.6 |
| 20260506120024 | 40 | 359 | 5.0 | 15.0 | 0.00 | 0.01 | 0.00 | 84 | 1009.5 |
| 20260506114519 | 40 | 328 | 4.0 | 11.0 | 0.00 | 0.01 | 0.00 | 86 | 1009.1 |
| 20260506113015 | 40 | 348 | 2.0 | 11.0 | 0.00 | 0.01 | 0.00 | 87 | 1008.8 |
| 20260506111514 | 40 | 329 | 3.0 | 11.0 | 0.00 | 0.01 | 0.00 | 88 | 1008.6 |
| 20260506110015 | 39 | 360 | 5.0 | 11.0 | 0.00 | 0.01 | 0.00 | 88 | 1008.1 |
| 20260506104523 | 39 | 307 | 5.0 | 11.0 | 0.00 | 0.01 | 0.00 | 88 | 1007.5 |
| 20260506103016 | 39 | 6 | 3.0 | 10.0 | 0.00 | 0.01 | 0.00 | 88 | 1007.3 |
| 20260506101515 | 39 | 317 | 4.0 | 11.0 | 0.00 | 0.01 | 0.00 | 88 | 1007.5 |
| 20260506100019 | 39 | 321 | 4.0 | 10.0 | 0.00 | 0.01 | 0.00 | 88 | 1007.3 |
| 20260506094515 | 40 | 335 | 4.0 | 12.0 | 0.00 | 0.01 | 0.00 | 87 | 1007.4 |
| 20260506093020 | 40 | 300 | 2.0 | 10.0 | 0.00 | 0.01 | 0.00 | 87 | 1007.2 |
| 20260506091515 | 40 | 292 | 4.0 | 11.0 | 0.00 | 0.01 | 0.00 | 86 | 1007.1 |
| 20260506090015 | 40 | 304 | 4.0 | 12.0 | 0.00 | 0.01 | 0.00 | 87 | 1007.1 |
| 20260506084515 | 41 | 316 | 3.0 | 9.0 | 0.00 | 0.01 | 0.00 | 88 | 1007.2 |
| 20260506083021 | 41 | 289 | 1.0 | 9.0 | 0.00 | 0.01 | 0.00 | 89 | 1007.2 |
| 20260506081517 | 41 | 240 | 0.0 | 3.0 | 0.00 | 0.01 | 0.00 | 89 | 1006.9 |
| 20260506073015 | 44 | 231 | 0.0 | 3.0 | 0.00 | 0.01 | 0.00 | 87 | 1006.8 |
| 20260506071518 | 44 | 231 | 0.0 | 4.0 | 0.00 | 0.01 | 0.00 | 86 | 1006.8 |
| 20260506061516 | 47 | 129 | 0.0 | 0.0 | 0.00 | 0.01 | 0.00 | 78 | 1006.3 |
| 20260506044517 | 48 | 128 | 0.0 | 2.0 | 0.00 | 0.01 | 0.00 | 87 | 1006.8 |
| 20260506043016 | 49 | 128 | 0.0 | 1.0 | 0.00 | 0.01 | 0.00 | 88 | 1007.0 |
| 20260506041516 | 49 | 128 | 0.0 | 3.0 | 0.00 | 0.01 | 0.00 | 88 | 1006.9 |
| 20260506040016 | 49 | 128 | 1.0 | 4.0 | 0.00 | 0.01 | 0.00 | 88 | 1007.0 |
| 20260506034516 | 49 | 128 | 0.0 | 4.0 | 0.00 | 0.01 | 0.01 | 87 | 1006.7 |
| 20260506033025 | 49 | 128 | 0.0 | 4.0 | 0.00 | 0.01 | 0.01 | 87 | 1006.9 |
| 20260506031529 | 49 | 93 | 0.0 | 2.0 | 0.00 | 0.01 | 0.01 | 87 | 1006.9 |
| 20260506030018 | 49 | 93 | 1.0 | 3.0 | 0.00 | 0.01 | 0.01 | 87 | 1007.1 |
| 20260506024525 | 50 | 93 | 1.0 | 3.0 | 0.00 | 0.01 | 0.01 | 86 | 1007.0 |
| 20260506023017 | 50 | 93 | 0.0 | 2.0 | 0.00 | 0.01 | 0.01 | 87 | 1006.5 |
| 20260506021518 | 50 | 93 | 0.0 | 1.0 | 0.00 | 0.01 | 0.01 | 86 | 1006.8 |
| 20260506020017 | 50 | 93 | 0.0 | 0.0 | 0.00 | 0.01 | 0.01 | 86 | 1006.7 |
| 20260506014516 | 50 | 93 | 0.0 | 0.0 | 0.00 | 0.01 | 0.01 | 86 | 1006.7 |
| 20260506013020 | 49 | 93 | 0.0 | 3.0 | 0.00 | 0.01 | 0.01 | 86 | 1006.7 |
| 20260506011519 | 50 | 49 | 0.0 | 0.0 | 0.00 | 0.01 | 0.01 | 86 | 1006.5 |
| 20260506010043 | 49 | 49 | 0.0 | 0.0 | 0.00 | 0.01 | 0.01 | 85 | 1006.4 |
| 20260506004517 | 50 | 49 | 0.0 | 0.0 | 0.00 | 0.01 | 0.01 | 84 | 1006.3 |
| 20260506003017 | 50 | 49 | 0.0 | 0.0 | 0.01 | 0.01 | 0.01 | 84 | 1006.2 |
| 20260506001517 | 50 | 49 | 0.0 | 0.0 | 0.01 | 0.01 | 0.01 | 83 | 1006.2 |
| 20260506000018 | 51 | 49 | 0.0 | 0.0 | 0.01 | 0.01 | 0.01 | 82 | 1005.9 |
| 20260505234517 | 51 | 49 | 0.0 | 1.0 | 0.00 | 0.00 | 0.00 | 82 | 1005.8 |
| 20260505233018 | 51 | 49 | 0.0 | 0.0 | 0.00 | 0.00 | 0.00 | 82 | 1005.9 |
| 20260505231518 | 51 | 49 | 0.0 | 1.0 | 0.00 | 0.00 | 0.00 | 81 | 1006.0 |
| 20260505230025 | 51 | 49 | 0.0 | 2.0 | 0.00 | 0.00 | 0.00 | 81 | 1005.9 |
| 20260505224517 | 51 | 49 | 0.0 | 2.0 | 0.00 | 0.00 | 0.00 | 81 | 1006.1 |
| 20260505223018 | 50 | 49 | 2.0 | 3.0 | 0.00 | 0.00 | 0.00 | 82 | 1006.0 |
| 20260505221519 | 49 | 49 | 1.0 | 3.0 | 0.00 | 0.00 | 0.00 | 81 | 1006.2 |
| 20260505220022 | 49 | 49 | 0.0 | 2.0 | 0.00 | 0.00 | 0.00 | 80 | 1006.2 |
| 20260505214518 | 49 | 49 | 2.0 | 4.0 | 0.00 | 0.00 | 0.00 | 79 | 1006.2 |
| 20260505213024 | 49 | 47 | 2.0 | 5.0 | 0.00 | 0.00 | 0.00 | 79 | 1006.3 |
| 20260505211521 | 49 | 47 | 1.0 | 4.0 | 0.00 | 0.00 | 0.00 | 78 | 1006.1 |
| 20260505210018 | 48 | 47 | 3.0 | 5.0 | 0.00 | 0.00 | 0.00 | 77 | 1006.2 |
| 20260505204520 | 48 | 347 | 2.0 | 4.0 | 0.00 | 0.00 | 0.00 | 76 | 1006.3 |
| 20260505203028 | 48 | 347 | 1.0 | 3.0 | 0.00 | 0.00 | 0.00 | 75 | 1006.5 |
| 20260505201554 | 48 | 347 | 0.0 | 3.0 | 0.00 | 0.00 | 0.00 | 73 | 1006.6 |
| 20260505200049 | 48 | 347 | 1.0 | 3.0 | 0.00 | 0.00 | 0.00 | 73 | 1006.8 |
| 20260505194549 | 48 | 347 | 1.0 | 2.0 | 0.00 | 0.00 | 0.00 | 73 | 1006.5 |
| 20260505193050 | 47 | 347 | 0.0 | 2.0 | 0.00 | 0.00 | 0.00 | 72 | 1006.6 |
| 20260505191602 | 47 | 347 | 1.0 | 3.0 | 0.00 | 0.00 | 0.00 | 73 | 1006.5 |
| 20260505190057 | 47 | 347 | 0.0 | 2.0 | 0.00 | 0.00 | 0.00 | 74 | 1006.4 |
| 20260505184549 | 46 | 347 | 0.0 | 2.0 | 0.00 | 0.00 | 0.00 | 77 | 1006.3 |
| 20260505183111 | 46 | 347 | 1.0 | 3.0 | 0.00 | 0.00 | 0.00 | 80 | 1006.1 |
| 20260505181551 | 45 | 347 | 0.0 | 2.0 | 0.00 | 0.00 | 0.00 | 81 | 1006.3 |
| 20260505180049 | 45 | 347 | 0.0 | 3.0 | 0.00 | 0.00 | 0.00 | 82 | 1006.0 |
| 20260505174550 | 44 | 347 | 0.0 | 2.0 | 0.00 | 0.00 | 0.00 | 83 | 1006.0 |
| 20260505173053 | 44 | 347 | 0.0 | 1.0 | 0.00 | 0.00 | 0.00 | 85 | 1005.9 |
| 20260505171558 | 43 | 347 | 0.0 | 4.0 | 0.00 | 0.00 | 0.00 | 83 | 1005.8 |
| 20260505170049 | 44 | 347 | 0.0 | 3.0 | 0.00 | 0.00 | 0.00 | 80 | 1005.6 |
| 20260505164551 | 45 | 347 | 2.0 | 5.0 | 0.00 | 0.00 | 0.00 | 79 | 1005.6 |
| 20260505163050 | 45 | 335 | 2.0 | 5.0 | 0.00 | 0.00 | 0.00 | 77 | 1005.8 |
| 20260505161610 | 44 | 347 | 1.0 | 5.0 | 0.00 | 0.00 | 0.00 | 76 | 1005.8 |
| 20260505153051 | 45 | 321 | 1.0 | 4.0 | 0.00 | 0.00 | 0.00 | 76 | 1005.2 |
| 20260505151550 | 45 | 303 | 1.0 | 6.0 | 0.00 | 0.00 | 0.00 | 76 | 1005.4 |